Location: CCZU
(31.6840°N, 119.9550°E)
Time: 17:55:39
(UTC+08:00)

Tiangong - Pass Details

Date: 12 December 2021
Orbit: 383 x 387 km, 41.5° (Epoch: 19 January)

Event Time Altitude Azimuth Distance (km) Brightness Sun altitude
Rises 18:19:03 0° 291° (WNW) 2,273 5.8 -17.0°
Reaches altitude 10° 18:21:47 10° 316° (NW) 1,416 4.3 -17.5°
Maximum altitude 18:23:43 15° 353° (N) 1,156 3.4 -17.9°
Enters shadow 18:23:45 15° 354° (N) 1,156 3.4 -17.9°
